| time (UTC) | temp C | wind direction | speed KPH | gust KPH | rain 1hr cm | rain 24hr cm | rain mn cm | humidity % | barometer mb |
| 20260504035545 | 10 | 124 | 0.0 | 0.0 | 0.00 | 0.03 | 0.03 | 76 | 1018.2 |
| 20260504034818 | 10 | 124 | 0.0 | 0.0 | 0.00 | 0.03 | 0.03 | 76 | 1018.1 |
| 20260504034311 | 10 | 124 | 0.0 | 0.0 | 0.00 | 0.03 | 0.03 | 76 | 1018.1 |
| 20260504033805 | 10 | 124 | 0.0 | 0.0 | 0.00 | 0.03 | 0.03 | 75 | 1018.1 |
| 20260504033300 | 10 | 124 | 0.0 | 0.0 | 0.00 | 0.03 | 0.03 | 75 | 1018.1 |
| 20260504032753 | 10 | 124 | 0.0 | 0.0 | 0.00 | 0.03 | 0.03 | 74 | 1018.1 |
| 20260504032247 | 10 | 124 | 0.0 | 0.0 | 0.00 | 0.03 | 0.03 | 74 | 1018.1 |
| 20260504031742 | 10 | 124 | 0.0 | 0.0 | 0.00 | 0.03 | 0.03 | 74 | 1018.1 |
| 20260504031235 | 10 | 124 | 0.0 | 0.0 | 0.00 | 0.03 | 0.03 | 74 | 1018.1 |
| 20260504030951 | 11 | 124 | 0.0 | 0.0 | 0.00 | 0.03 | 0.03 | 74 | 1018.2 |
| 20260504030223 | 11 | 124 | 0.0 | 0.0 | 0.00 | 0.03 | 0.03 | 74 | 1018.2 |
| 20260504025717 | 11 | 124 | 0.0 | 0.0 | 0.00 | 0.03 | 0.03 | 74 | 1018.2 |
| 20260504025211 | 11 | 124 | 0.0 | 0.0 | 0.00 | 0.03 | 0.03 | 74 | 1018.3 |
| 20260504024706 | 11 | 124 | 0.0 | 0.0 | 0.00 | 0.03 | 0.03 | 73 | 1018.2 |
| 20260504024159 | 11 | 124 | 0.0 | 0.0 | 0.00 | 0.03 | 0.03 | 72 | 1018.2 |
| 20260504023655 | 11 | 124 | 0.0 | 0.0 | 0.00 | 0.03 | 0.03 | 72 | 1018.1 |
| 20260504023147 | 11 | 124 | 0.0 | 0.0 | 0.00 | 0.03 | 0.03 | 72 | 1018.1 |
| 20260504022901 | 12 | 124 | 0.0 | 0.0 | 0.00 | 0.03 | 0.03 | 72 | 1018.1 |
| 20260504022359 | 12 | 124 | 0.0 | 0.0 | 0.00 | 0.03 | 0.03 | 72 | 1018.0 |
| 20260504021629 | 12 | 124 | 0.0 | 0.0 | 0.00 | 0.03 | 0.03 | 71 | 1018.0 |
| 20260504021124 | 12 | 124 | 0.0 | 0.0 | 0.00 | 0.03 | 0.03 | 70 | 1018.0 |
| 20260504020617 | 12 | 124 | 0.0 | 0.0 | 0.00 | 0.03 | 0.03 | 70 | 1017.9 |
| 20260504020111 | 12 | 124 | 0.0 | 0.0 | 0.00 | 0.03 | 0.03 | 70 | 1017.8 |
| 20260504015826 | 12 | 124 | 0.0 | 0.0 | 0.00 | 0.03 | 0.03 | 69 | 1017.7 |
| 20260504015321 | 13 | 124 | 0.0 | 0.0 | 0.00 | 0.03 | 0.03 | 68 | 1017.7 |
| 20260504014553 | 13 | 124 | 0.0 | 0.0 | 0.00 | 0.03 | 0.03 | 67 | 1017.6 |
| 20260504014047 | 13 | 124 | 0.0 | 0.0 | 0.00 | 0.03 | 0.03 | 67 | 1017.6 |
| 20260504014020 | 13 | 124 | 0.0 | 1.6 | 0.00 | 0.03 | 0.03 | 67 | 1017.6 |
| 20260504013035 | 14 | 124 | 0.0 | 1.6 | 0.00 | 0.03 | 0.03 | 66 | 1017.3 |
| 20260504012529 | 14 | 124 | 0.0 | 0.0 | 0.00 | 0.03 | 0.03 | 64 | 1017.2 |
| 20260504012023 | 14 | 124 | 0.0 | 0.0 | 0.00 | 0.03 | 0.03 | 63 | 1017.2 |
| 20260504011517 | 15 | 124 | 0.0 | 0.0 | 0.00 | 0.03 | 0.03 | 62 | 1017.1 |
| 20260504011011 | 15 | 124 | 0.0 | 0.0 | 0.00 | 0.03 | 0.03 | 62 | 1017.1 |
| 20260504010507 | 15 | 124 | 0.0 | 0.0 | 0.00 | 0.03 | 0.03 | 62 | 1017.0 |
| 20260504005959 | 15 | 124 | 0.0 | 0.0 | 0.00 | 0.03 | 0.03 | 61 | 1016.9 |
| 20260504005453 | 16 | 124 | 0.0 | 0.0 | 0.00 | 0.03 | 0.03 | 60 | 1016.9 |
| 20260504004949 | 16 | 124 | 0.0 | 1.6 | 0.00 | 0.03 | 0.03 | 60 | 1016.9 |
| 20260504004443 | 16 | 124 | 0.0 | 1.6 | 0.00 | 0.03 | 0.03 | 59 | 1016.8 |
| 20260504003936 | 16 | 124 | 0.0 | 1.6 | 0.00 | 0.03 | 0.03 | 58 | 1016.7 |
| 20260504003650 | 17 | 124 | 0.0 | 1.6 | 0.00 | 0.03 | 0.03 | 57 | 1016.8 |
| 20260504002924 | 17 | 124 | 0.0 | 1.6 | 0.00 | 0.03 | 0.03 | 55 | 1016.7 |
| 20260504002417 | 18 | 107 | 0.0 | 1.6 | 0.00 | 0.03 | 0.03 | 54 | 1016.6 |
| 20260504001911 | 18 | 312 | 0.0 | 1.6 | 0.00 | 0.03 | 0.03 | 53 | 1016.7 |
| 20260504001405 | 18 | 312 | 0.0 | 1.6 | 0.00 | 0.03 | 0.03 | 51 | 1016.6 |
| 20260504000859 | 19 | 312 | 0.0 | 3.2 | 0.00 | 0.03 | 0.03 | 51 | 1016.6 |
| 20260504000354 | 19 | 312 | 1.6 | 3.2 | 0.00 | 0.03 | 0.03 | 50 | 1016.6 |
| 20260503235847 | 20 | 312 | 1.6 | 3.2 | 0.00 | 0.03 | 0.03 | 50 | 1016.5 |
| 20260503235342 | 20 | 312 | 0.0 | 3.2 | 0.00 | 0.03 | 0.03 | 48 | 1016.5 |
| 20260503234835 | 20 | 312 | 0.0 | 3.2 | 0.00 | 0.03 | 0.03 | 47 | 1016.5 |
| 20260503234329 | 20 | 312 | 0.0 | 3.2 | 0.00 | 0.03 | 0.03 | 43 | 1016.5 |
| 20260503233823 | 21 | 329 | 0.0 | 1.6 | 0.00 | 0.03 | 0.03 | 38 | 1016.5 |
| 20260503233317 | 21 | 329 | 1.6 | 4.8 | 0.00 | 0.03 | 0.03 | 35 | 1016.5 |
| 20260503232811 | 21 | 329 | 1.6 | 6.4 | 0.00 | 0.03 | 0.03 | 33 | 1016.5 |
| 20260503232512 | 21 | 305 | 1.6 | 4.8 | 0.00 | 0.03 | 0.03 | 32 | 1016.5 |
| 20260503232355 | 21 | 296 | 1.6 | 6.4 | 0.00 | 0.03 | 0.03 | 32 | 1016.5 |
| 20260503231253 | 21 | 345 | 1.6 | 6.4 | 0.00 | 0.03 | 0.03 | 33 | 1016.5 |
| 20260503230748 | 22 | 246 | 1.6 | 6.4 | 0.00 | 0.03 | 0.03 | 31 | 1016.5 |
| 20260503230721 | 22 | 234 | 1.6 | 6.4 | 0.00 | 0.03 | 0.03 | 30 | 1016.6 |
| 20260503225735 | 22 | 307 | 1.6 | 3.2 | 0.00 | 0.03 | 0.03 | 33 | 1016.6 |
| 20260503225229 | 22 | 331 | 1.6 | 9.7 | 0.00 | 0.03 | 0.03 | 31 | 1016.7 |
| 20260503224723 | 22 | 313 | 3.2 | 9.7 | 0.00 | 0.03 | 0.03 | 30 | 1016.7 |
| 20260503224217 | 22 | 49 | 3.2 | 11.3 | 0.00 | 0.03 | 0.03 | 29 | 1016.7 |
| 20260503223711 | 22 | 273 | 3.2 | 11.3 | 0.00 | 0.03 | 0.03 | 29 | 1016.8 |
| 20260503223205 | 22 | 335 | 3.2 | 12.9 | 0.00 | 0.03 | 0.03 | 30 | 1016.8 |
| 20260503222659 | 22 | 240 | 3.2 | 12.9 | 0.00 | 0.03 | 0.03 | 31 | 1016.9 |
| 20260503222153 | 22 | 271 | 3.2 | 9.7 | 0.00 | 0.03 | 0.03 | 29 | 1016.8 |
| 20260503221647 | 22 | 213 | 4.8 | 11.3 | 0.00 | 0.03 | 0.03 | 29 | 1016.8 |
| 20260503221142 | 22 | 217 | 4.8 | 11.3 | 0.00 | 0.03 | 0.03 | 29 | 1016.8 |
| 20260503220635 | 22 | 229 | 4.8 | 11.3 | 0.00 | 0.03 | 0.03 | 30 | 1016.8 |
| 20260503220129 | 22 | 215 | 3.2 | 11.3 | 0.00 | 0.03 | 0.03 | 30 | 1016.8 |
| 20260503215623 | 22 | 288 | 4.8 | 11.3 | 0.00 | 0.03 | 0.03 | 29 | 1016.7 |
| 20260503215117 | 22 | 44 | 3.2 | 9.7 | 0.00 | 0.03 | 0.03 | 32 | 1016.8 |
| 20260503214612 | 22 | 38 | 4.8 | 12.9 | 0.00 | 0.03 | 0.03 | 30 | 1016.8 |
| 20260503214113 | 22 | 281 | 4.8 | 14.5 | 0.00 | 0.03 | 0.03 | 29 | 1016.9 |
| 20260503213835 | 22 | 221 | 6.4 | 16.1 | 0.00 | 0.03 | 0.03 | 30 | 1016.8 |
| 20260503213110 | 22 | 225 | 4.8 | 16.1 | 0.00 | 0.03 | 0.03 | 30 | 1016.8 |
| 20260503212613 | 22 | 213 | 4.8 | 12.9 | 0.00 | 0.03 | 0.03 | 30 | 1016.9 |
| 20260503212111 | 22 | 51 | 6.4 | 17.7 | 0.00 | 0.03 | 0.03 | 32 | 1016.9 |
| 20260503211606 | 22 | 28 | 9.7 | 19.3 | 0.00 | 0.03 | 0.03 | 31 | 1016.9 |
| 20260503211108 | 22 | 232 | 8.0 | 19.3 | 0.00 | 0.03 | 0.03 | 29 | 1016.9 |
| 20260503210608 | 22 | 252 | 6.4 | 17.7 | 0.00 | 0.03 | 0.03 | 30 | 1016.8 |
| 20260503210108 | 22 | 304 | 4.8 | 14.5 | 0.00 | 0.03 | 0.03 | 29 | 1016.9 |
| 20260503205608 | 22 | 250 | 4.8 | 19.3 | 0.00 | 0.03 | 0.03 | 30 | 1016.9 |
| 20260503205105 | 22 | 319 | 6.4 | 19.3 | 0.00 | 0.03 | 0.03 | 31 | 1016.9 |
| 20260503204607 | 22 | 230 | 6.4 | 14.5 | 0.00 | 0.03 | 0.03 | 29 | 1017.0 |
| 20260503204104 | 22 | 320 | 4.8 | 14.5 | 0.00 | 0.03 | 0.03 | 30 | 1017.0 |
| 20260503204048 | 22 | 321 | 4.8 | 12.9 | 0.00 | 0.03 | 0.03 | 32 | 1017.0 |
| 20260503203106 | 22 | 243 | 4.8 | 12.9 | 0.00 | 0.03 | 0.03 | 30 | 1017.1 |
| 20260503202605 | 22 | 346 | 4.8 | 11.3 | 0.00 | 0.03 | 0.03 | 30 | 1017.2 |
| 20260503202105 | 22 | 319 | 6.4 | 19.3 | 0.00 | 0.03 | 0.03 | 30 | 1017.2 |
| 20260503201559 | 22 | 244 | 6.4 | 19.3 | 0.00 | 0.03 | 0.03 | 30 | 1017.3 |
| 20260503201053 | 22 | 267 | 6.4 | 16.1 | 0.00 | 0.03 | 0.03 | 32 | 1017.4 |
| 20260503200554 | 22 | 308 | 4.8 | 16.1 | 0.00 | 0.03 | 0.03 | 29 | 1017.4 |
| 20260503200052 | 21 | 255 | 4.8 | 16.1 | 0.00 | 0.03 | 0.03 | 30 | 1017.6 |
| 20260503195550 | 21 | 249 | 8.0 | 19.3 | 0.00 | 0.03 | 0.03 | 30 | 1017.7 |
| 20260503195309 | 21 | 255 | 6.4 | 19.3 | 0.00 | 0.03 | 0.03 | 29 | 1017.8 |
| 20260503194548 | 21 | 142 | 3.2 | 14.5 | 0.00 | 0.03 | 0.03 | 30 | 1017.8 |
| 20260503194046 | 21 | 197 | 4.8 | 14.5 | 0.00 | 0.03 | 0.03 | 30 | 1017.9 |
| 20260503193546 | 21 | 245 | 8.0 | 16.1 | 0.00 | 0.03 | 0.03 | 29 | 1018.0 |
| 20260503193046 | 21 | 281 | 9.7 | 17.7 | 0.00 | 0.03 | 0.03 | 30 | 1018.0 |
| 20260503192545 | 22 | 207 | 6.4 | 17.7 | 0.00 | 0.03 | 0.03 | 29 | 1018.2 |
| 20260503192305 | 22 | 224 | 3.2 | 14.5 | 0.00 | 0.03 | 0.03 | 31 | 1018.3 |
| 20260503191808 | 21 | 97 | 3.2 | 14.5 | 0.00 | 0.03 | 0.03 | 32 | 1018.4 |
| 20260503191044 | 21 | 316 | 6.4 | 19.3 | 0.00 | 0.03 | 0.03 | 30 | 1018.5 |
| 20260503190542 | 21 | 143 | 8.0 | 19.3 | 0.00 | 0.03 | 0.03 | 30 | 1018.6 |
| 20260503190044 | 21 | 211 | 6.4 | 16.1 | 0.00 | 0.03 | 0.03 | 29 | 1018.7 |
| 20260503185542 | 21 | 216 | 6.4 | 17.7 | 0.00 | 0.03 | 0.03 | 30 | 1018.8 |
| 20260503185043 | 21 | 227 | 8.0 | 17.7 | 0.00 | 0.03 | 0.03 | 31 | 1018.8 |
| 20260503184540 | 21 | 250 | 8.0 | 19.3 | 0.00 | 0.03 | 0.03 | 30 | 1018.9 |
| 20260503184302 | 21 | 327 | 6.4 | 19.3 | 0.00 | 0.03 | 0.03 | 32 | 1019.0 |
| 20260503183539 | 21 | 253 | 6.4 | 12.9 | 0.00 | 0.03 | 0.03 | 30 | 1019.0 |
| 20260503183038 | 21 | 197 | 4.8 | 14.5 | 0.00 | 0.03 | 0.03 | 32 | 1019.1 |
| 20260503182538 | 21 | 258 | 8.0 | 22.5 | 0.00 | 0.03 | 0.03 | 34 | 1019.2 |
| 20260503182037 | 21 | 240 | 8.0 | 22.5 | 0.00 | 0.03 | 0.03 | 33 | 1019.3 |
| 20260503181538 | 21 | 130 | 6.4 | 16.1 | 0.00 | 0.03 | 0.03 | 32 | 1019.2 |
| 20260503181038 | 21 | 211 | 6.4 | 16.1 | 0.00 | 0.03 | 0.03 | 34 | 1019.4 |
| 20260503180531 | 20 | 251 | 6.4 | 16.1 | 0.00 | 0.03 | 0.03 | 34 | 1019.4 |
| 20260503180026 | 20 | 248 | 6.4 | 16.1 | 0.00 | 0.03 | 0.03 | 35 | 1019.5 |
| 20260503175519 | 20 | 263 | 8.0 | 16.1 | 0.00 | 0.03 | 0.03 | 34 | 1019.5 |
| 20260503175235 | 20 | 217 | 6.4 | 16.1 | 0.00 | 0.03 | 0.03 | 35 | 1019.6 |
| 20260503174507 | 20 | 275 | 8.0 | 16.1 | 0.00 | 0.03 | 0.03 | 32 | 1019.6 |
| 20260503174003 | 20 | 192 | 6.4 | 17.7 | 0.00 | 0.03 | 0.03 | 32 | 1019.5 |
| 20260503173731 | 20 | 252 | 4.8 | 17.7 | 0.00 | 0.03 | 0.03 | 34 | 1019.5 |
| 20260503173003 | 20 | 331 | 4.8 | 11.3 | 0.00 | 0.03 | 0.03 | 35 | 1019.6 |
| 20260503172718 | 20 | 268 | 6.4 | 16.1 | 0.00 | 0.03 | 0.03 | 36 | 1019.7 |
| 20260503172224 | 20 | 271 | 6.4 | 16.1 | 0.00 | 0.03 | 0.03 | 36 | 1019.7 |
| 20260503171502 | 20 | 271 | 4.8 | 14.5 | 0.00 | 0.03 | 0.03 | 37 | 1019.6 |
| 20260503170958 | 20 | 99 | 3.2 | 11.3 | 0.00 | 0.03 | 0.03 | 33 | 1019.7 |
| 20260503170500 | 20 | 193 | 4.8 | 17.7 | 0.00 | 0.03 | 0.03 | 32 | 1019.8 |
| 20260503150936 | 17 | 42 | 3.2 | 9.7 | 0.00 | 0.03 | 0.03 | 45 | 1020.7 |
| 20260503150435 | 17 | 98 | 3.2 | 12.9 | 0.00 | 0.03 | 0.03 | 48 | 1020.7 |
| 20260503130924 | 11 | 43 | 1.6 | 8.0 | 0.03 | 0.30 | 0.03 | 85 | 1020.1 |
| 20260503130425 | 11 | 20 | 0.0 | 4.8 | 0.03 | 0.30 | 0.03 | 86 | 1020.1 |
| 20260503110411 | 8 | 228 | 1.6 | 4.8 | 0.00 | 0.61 | 0.00 | 85 | 1019.1 |
| 20260503090354 | 7 | 78 | 0.0 | 0.0 | 0.00 | 0.79 | 0.00 | 84 | 1017.8 |
| 20260503090119 | 7 | 78 | 0.0 | 0.0 | 0.00 | 0.79 | 0.00 | 84 | 1017.8 |
| 20260503081325 | 7 | 78 | 0.0 | 0.0 | 0.00 | 1.04 | 0.00 | 84 | 1017.4 |
| 20260503080821 | 7 | 78 | 0.0 | 0.0 | 0.00 | 1.09 | 0.00 | 84 | 1017.2 |
| 20260503080547 | 7 | 78 | 0.0 | 0.0 | 0.00 | 1.09 | 0.00 | 83 | 1017.3 |
| 20260503072812 | 7 | 78 | 0.0 | 0.0 | 0.00 | 1.24 | 0.00 | 83 | 1017.0 |
| 20260503072312 | 7 | 78 | 0.0 | 0.0 | 0.00 | 1.27 | 0.00 | 83 | 1017.1 |
| 20260503072038 | 7 | 78 | 0.0 | 0.0 | 0.00 | 1.30 | 0.00 | 83 | 1017.0 |
| 20260503071311 | 8 | 78 | 0.0 | 0.0 | 0.00 | 1.30 | 0.00 | 83 | 1016.9 |
| 20260503070812 | 8 | 78 | 0.0 | 0.0 | 0.00 | 1.30 | 0.00 | 83 | 1016.8 |
| 20260503070307 | 8 | 78 | 0.0 | 0.0 | 0.00 | 1.30 | 0.00 | 82 | 1016.9 |
| 20260503054649 | 9 | 78 | 0.0 | 0.0 | 0.00 | 1.40 | 0.00 | 82 | 1016.6 |
| 20260503054147 | 9 | 78 | 0.0 | 0.0 | 0.00 | 1.40 | 0.00 | 82 | 1016.7 |
| 20260503053646 | 9 | 78 | 0.0 | 0.0 | 0.00 | 1.40 | 0.00 | 82 | 1016.6 |
| 20260503053144 | 9 | 78 | 0.0 | 0.0 | 0.00 | 1.40 | 0.00 | 82 | 1016.7 |
| 20260503052907 | 10 | 78 | 0.0 | 0.0 | 0.00 | 1.40 | 0.00 | 81 | 1016.6 |
| 20260503052627 | 10 | 78 | 0.0 | 0.0 | 0.00 | 1.40 | 0.00 | 81 | 1016.6 |
| 20260503051634 | 10 | 78 | 0.0 | 0.0 | 0.00 | 1.40 | 0.00 | 82 | 1016.6 |
| 20260503051128 | 10 | 78 | 0.0 | 0.0 | 0.00 | 1.40 | 0.00 | 81 | 1016.6 |
| 20260503050623 | 10 | 78 | 0.0 | 0.0 | 0.00 | 1.40 | 0.00 | 81 | 1016.6 |
| 20260503050341 | 10 | 78 | 0.0 | 0.0 | 0.00 | 1.40 | 0.00 | 81 | 1016.6 |
| 20260503045611 | 10 | 78 | 0.0 | 0.0 | 0.00 | 1.40 | 0.00 | 81 | 1016.6 |
| 20260503045105 | 10 | 78 | 0.0 | 0.0 | 0.00 | 1.40 | 0.00 | 81 | 1016.6 |
| 20260503044558 | 10 | 78 | 0.0 | 0.0 | 0.00 | 1.40 | 0.00 | 81 | 1016.6 |
| 20260503044053 | 11 | 78 | 0.0 | 0.0 | 0.00 | 1.40 | 0.00 | 81 | 1016.5 |
| 20260503043817 | 11 | 78 | 0.0 | 0.0 | 0.00 | 1.40 | 0.00 | 81 | 1016.4 |
| 20260503043522 | 11 | 78 | 0.0 | 0.0 | 0.00 | 1.40 | 0.00 | 81 | 1016.3 |
| 20260503042534 | 11 | 78 | 0.0 | 0.0 | 0.00 | 1.40 | 0.00 | 81 | 1016.3 |
| 20260503042029 | 11 | 78 | 0.0 | 0.0 | 0.00 | 1.40 | 0.00 | 81 | 1016.3 |
| 20260503041523 | 11 | 78 | 0.0 | 0.0 | 0.00 | 1.40 | 0.00 | 81 | 1016.3 |
| 20260503041017 | 11 | 78 | 0.0 | 0.0 | 0.00 | 1.40 | 0.00 | 81 | 1016.3 |
| 20260503040732 | 11 | 78 | 0.0 | 0.0 | 0.00 | 1.40 | 0.00 | 81 | 1016.3 |
| 20260503040005 | 11 | 78 | 0.0 | 0.0 | 0.00 | 1.40 | 0.00 | 81 | 1016.3 |